CST,Max TemperatureF,Mean TemperatureF,Min TemperatureF,Max Dew PointF,MeanDew PointF,Min DewpointF,Max Humidity, Mean Humidity, Min Humidity, Max Sea Level PressureIn, Mean Sea Level PressureIn, Min Sea Level PressureIn, Max VisibilityMiles, Mean VisibilityMiles, Min VisibilityMiles, Max Wind SpeedMPH, Mean Wind SpeedMPH, Max Gust SpeedMPH,PrecipitationIn, CloudCover, Events, WindDirDegrees
2013-2-1,44,26,9,34,21,0,91,75,65,30.18,30.02,29.92,10,10,10,18,7,24,0.00,6,,246
2013-2-2,47,40,31,33,29,24,92,70,40,30.20,30.10,30.05,10,10,4,30,13,41,0.01,4,Rain-Snow,295
2013-2-3,55,38,21,27,23,18,91,60,26,30.22,29.95,29.78,10,10,10,21,9,26,0.00,0,,254
2013-2-4,46,34,23,31,26,22,96,76,48,29.95,29.85,29.77,10,7,0,15,8,,0.00,6,Fog,269
2013-2-5,49,42,35,28,24,20,70,53,32,30.02,29.92,29.80,10,10,10,17,10,22,0.00,4,,299
2013-2-6,51,43,35,29,27,23,74,58,38,29.99,29.83,29.75,10,10,10,22,12,28,0.00,1,,271
2013-2-7,48,36,23,29,25,21,95,71,41,30.15,30.08,29.99,10,9,0,13,6,17,0.00,2,Fog,343
2013-2-8,51,36,21,30,25,20,96,72,35,30.15,29.98,29.81,10,9,1,29,12,36,0.00,1,,164
2013-2-9,44,34,25,28,25,21,96,76,45,29.82,29.70,29.51,10,8,1,22,12,28,0.02,3,Snow,341
2013-2-10,31,28,24,28,24,18,96,88,69,29.90,29.56,29.36,10,2,0,39,24,53,0.07,8,Snow,329
2013-2-11,27,20,13,17,13,8,81,73,61,30.10,30.03,29.91,10,10,10,22,14,31,0.00,0,,274
2013-2-12,37,25,13,25,15,6,79,67,52,30.02,29.94,29.90,10,10,10,14,10,,0.00,0,,260
2013-2-13,45,35,25,32,25,17,78,66,53,29.90,29.80,29.71,10,10,10,18,10,23,0.02,3,,273
2013-2-14,36,26,14,30,21,12,88,73,54,30.29,30.08,29.89,10,10,7,40,15,54,0.00,4,Snow,313
2013-2-15,28,20,11,16,12,7,86,73,49,30.31,30.28,30.22,10,10,10,24,9,32,0.00,3,Snow,285
2013-2-16,46,31,16,31,23,11,89,72,51,30.22,29.98,29.89,10,10,4,21,9,28,0.00,4,Snow,230
2013-2-17,54,40,26,29,26,21,87,62,28,29.89,29.66,29.50,10,10,10,21,9,29,0.00,0,,227
2013-2-18,38,28,19,28,19,11,74,63,50,30.10,29.88,29.68,10,10,10,34,21,45,0.00,6,,326
2013-2-19,23,16,10,13,5,-1,82,66,36,30.27,30.20,30.11,10,9,2,17,11,21,0.00,3,Snow,19
2013-2-20,27,18,8,17,7,-2,85,65,36,30.21,30.07,29.99,10,9,2,22,13,25,0.01,5,Snow,125
2013-2-21,19,16,14,16,14,11,87,85,79,30.03,29.97,29.92,10,3,1,18,12,22,0.07,8,Snow,67
2013-2-22,23,14,6,14,10,2,88,81,68,29.96,29.92,29.84,10,9,2,12,7,,0.02,2,Snow,286
2013-2-23,35,22,9,25,17,4,88,75,59,29.84,29.73,29.67,10,10,7,12,6,,0.00,1,,209
2013-2-24,34,27,20,32,25,18,94,87,70,30.06,29.92,29.75,10,9,5,17,5,21,0.00,7,Snow,342
2013-2-25,36,26,15,31,22,12,94,78,51,30.08,30.00,29.89,10,9,4,10,5,,0.00,2,,336
2013-2-26,33,20,8,24,17,5,93,82,56,29.98,29.88,29.83,10,10,10,12,3,,0.00,0,,354
2013-2-27,32,28,25,29,25,20,94,81,72,30.18,30.11,29.97,10,9,1,23,15,28,0.00,6,,335
2013-2-28,32,26,17,24,22,16,93,80,69,30.22,30.19,30.17,10,10,4,20,12,22,0.00,6,,344